FW6974 Weather Reports


time (UTC)temp
F
wind
direction
speed
knots
gust
knots
rain 1hr
in
rain 24hr
in
rain mn
in
humidity
%
barometer
mb
20260505072538 64 310 1.7 3.5 0.00 0.00 0.00 64 1007.5
20260505072035 63 314 2.6 3.5 0.00 0.00 0.00 64 1007.4
20260505071530 64 337 1.7 3.5 0.00 0.00 0.00 64 1007.4
20260505071029 64 341 2.6 5.2 0.00 0.00 0.00 64 1007.5
20260505070526 64 352 2.6 4.3 0.00 0.00 0.00 64 1007.6
20260505070022 63 323 1.7 3.5 0.00 0.00 0.00 65 1007.8
20260505065518 64 340 2.6 3.5 0.00 0.00 0.00 64 1007.8
20260505065014 64 339 1.7 3.5 0.00 0.00 0.00 64 1007.7
20260505064511 64 147 1.7 3.5 0.00 0.00 0.00 64 1008.0
20260505064010 64 324 1.7 4.3 0.00 0.00 0.00 64 1007.8
20260505063507 64 323 2.6 3.5 0.00 0.00 0.00 64 1007.8
20260505063007 64 305 1.7 3.5 0.00 0.00 0.00 65 1007.8
20260505062505 64 338 1.7 3.5 0.00 0.00 0.00 65 1007.8
20260505062002 64 347 2.6 3.5 0.00 0.00 0.00 65 1007.7
20260505061459 63 339 3.5 3.5 0.00 0.00 0.00 66 1007.9
20260505060957 64 352 2.6 4.3 0.00 0.00 0.00 66 1007.6
20260505060454 63 9 3.5 4.3 0.00 0.00 0.00 66 1007.5
20260505055950 63 333 2.6 3.5 0.00 0.00 0.00 67 1007.5
20260505055446 63 340 1.7 2.6 0.00 0.00 0.00 67 1007.5
20260505054943 63 0 1.7 3.5 0.00 0.00 0.00 67 1007.5
20260505054440 63 291 2.6 3.5 0.00 0.00 0.00 66 1007.4
20260505053938 64 317 2.6 3.5 0.00 0.00 0.00 66 1007.4
20260505053435 63 343 2.6 4.3 0.00 0.00 0.00 66 1007.4
20260505052932 63 325 1.7 3.5 0.00 0.00 0.00 66 1007.4
20260505052429 63 355 2.6 2.6 0.00 0.00 0.00 66 1007.5
20260505051926 64 337 2.6 3.5 0.00 0.00 0.00 66 1007.5
20260505051423 63 338 2.6 4.3 0.00 0.00 0.00 66 1007.5
20260505050921 63 332 1.7 3.5 0.00 0.00 0.00 67 1007.5
20260505050419 63 349 1.7 3.5 0.00 0.00 0.00 67 1007.8
20260505041347 65 344 1.7 2.6 0.00 0.00 0.00 66 1008.0
20260505040844 65 334 1.7 4.3 0.00 0.00 0.00 65 1008.0
20260505040341 65 332 2.6 3.5 0.00 0.00 0.00 66 1007.9
20260505035838 65 348 2.6 3.5 0.00 0.00 0.00 66 1007.8
20260505035334 65 327 1.7 3.5 0.00 0.00 0.00 67 1007.9
20260505034831 65 282 2.6 3.5 0.00 0.00 0.00 67 1007.9
20260505034328 65 348 1.7 3.5 0.00 0.00 0.00 67 1007.9
20260505033825 64 345 2.6 3.5 0.00 0.00 0.00 68 1007.8
20260505033322 64 292 1.7 3.5 0.00 0.00 0.00 68 1007.8
20260505032820 64 332 1.7 3.5 0.00 0.00 0.00 69 1007.9
20260505032316 64 319 1.7 3.5 0.00 0.00 0.00 68 1007.9
20260505031813 64 333 1.7 2.6 0.00 0.00 0.00 68 1007.9
20260505031309 64 347 1.7 2.6 0.00 0.00 0.00 68 1007.8
20260505030807 65 330 0.9 2.6 0.00 0.00 0.00 67 1007.9
20260505030303 64 329 2.6 2.6 0.00 0.00 0.00 68 1007.8
20260505025758 65 340 1.7 3.5 0.00 0.00 0.00 67 1007.6
20260505025256 65 325 2.6 3.5 0.00 0.00 0.00 67 1007.6
20260505024754 65 330 1.7 2.6 0.00 0.00 0.00 67 1007.7
20260505024251 65 333 0.9 3.5 0.00 0.00 0.00 66 1007.6
20260505023749 65 332 2.6 3.5 0.00 0.00 0.00 67 1007.6
20260505023246 65 334 1.7 3.5 0.00 0.00 0.00 67 1007.6
20260505022743 64 316 1.7 3.5 0.00 0.00 0.00 67 1007.4
20260505022240 65 342 1.7 2.6 0.00 0.00 0.00 67 1007.3
20260505021737 65 319 1.7 2.6 0.00 0.00 0.00 66 1007.2
20260505021234 65 322 1.7 2.6 0.00 0.00 0.00 66 1007.1
20260505020729 65 324 1.7 1.7 0.00 0.00 0.00 66 1006.7
20260505020225 65 326 1.7 2.6 0.00 0.00 0.00 66 1006.8
20260505015723 65 266 0.0 2.6 0.00 0.00 0.00 65 1007.0
20260505015219 65 284 1.7 2.6 0.00 0.00 0.00 65 1006.6
20260505014716 65 284 1.7 2.6 0.00 0.00 0.00 65 1006.9
20260505014214 65 304 1.7 2.6 0.00 0.00 0.00 66 1006.6
20260505013710 66 315 1.7 1.7 0.00 0.00 0.00 65 1006.8
20260505013207 66 282 0.9 2.6 0.00 0.00 0.00 64 1006.7
20260505012706 66 310 0.9 1.7 0.00 0.00 0.00 64 1006.7
20260505012203 66 301 0.9 2.6 0.00 0.00 0.00 64 1006.8
20260505011658 67 309 1.7 2.6 0.00 0.00 0.00 63 1006.5
20260505011155 67 293 0.9 2.6 0.00 0.00 0.00 63 1006.6
20260505010650 68 318 1.7 2.6 0.00 0.00 0.00 62 1006.5
20260505010148 68 313 0.9 2.6 0.00 0.00 0.00 61 1006.3
20260505005644 68 313 1.7 2.6 0.00 0.00 0.00 60 1006.5
20260505005141 68 348 2.6 2.6 0.00 0.00 0.00 60 1006.6
20260505004638 69 329 1.7 2.6 0.00 0.00 0.00 60 1006.4
20260505004134 69 305 1.7 3.5 0.00 0.00 0.00 60 1006.5
20260505003632 69 328 0.0 2.6 0.00 0.00 0.00 59 1006.4
20260505003129 70 321 1.7 2.6 0.00 0.00 0.00 58 1006.5
20260505002625 70 312 0.9 2.6 0.00 0.00 0.00 57 1006.8
20260505002124 70 338 1.7 2.6 0.00 0.00 0.00 56 1006.6
20260505001620 71 303 0.0 2.6 0.00 0.00 0.00 56 1006.6
20260505001118 71 348 1.7 3.5 0.00 0.00 0.00 56 1006.7
20260505000615 71 317 1.7 2.6 0.00 0.00 0.00 55 1006.8
20260505000113 72 302 1.7 2.6 0.00 0.00 0.00 54 1006.7
20260504235609 72 353 1.7 2.6 0.00 0.00 0.00 53 1006.9
20260504235105 72 18 2.6 3.5 0.00 0.00 0.00 53 1006.9
20260504234602 73 344 2.6 3.5 0.00 0.00 0.00 52 1006.9
20260504234101 73 289 1.7 3.5 0.00 0.00 0.00 52 1007.2
20260504233600 73 352 2.6 4.3 0.00 0.00 0.00 50 1007.2
20260504233057 73 341 1.7 4.3 0.00 0.00 0.00 51 1007.5
20260504232555 73 351 1.7 3.5 0.00 0.00 0.00 51 1007.3
20260504232052 74 346 1.7 2.6 0.00 0.00 0.00 50 1007.4
20260504231549 74 16 3.5 4.3 0.00 0.00 0.00 49 1007.3
20260504231045 74 6 2.6 3.5 0.00 0.00 0.00 51 1007.5
20260504230541 74 349 1.7 1.7 0.00 0.00 0.00 48 1007.2
20260504230040 75 332 1.7 2.6 0.00 0.00 0.00 48 1007.3
20260504225537 75 8 0.9 4.3 0.00 0.00 0.00 46 1007.3
20260504225034 75 354 2.6 3.5 0.00 0.00 0.00 46 1007.3
20260504224530 75 20 5.2 5.2 0.00 0.00 0.00 46 1007.5
20260504224028 75 340 1.7 3.5 0.00 0.00 0.00 46 1007.6
20260504223524 75 3 3.5 4.3 0.00 0.00 0.00 47 1007.6
20260504223020 75 15 4.3 7.8 0.00 0.00 0.00 46 1007.6
20260504222517 75 5 3.5 7.0 0.00 0.00 0.00 48 1007.5
20260504222015 76 18 1.7 3.5 0.00 0.00 0.00 47 1007.6
20260504221512 76 3 3.5 3.5 0.00 0.00 0.00 45 1007.4
20260504221009 77 13 1.7 5.2 0.00 0.00 0.00 45 1007.6
20260504220505 77 14 5.2 8.7 0.00 0.00 0.00 46 1007.5
20260504220002 77 337 0.9 3.5 0.00 0.00 0.00 49 1007.7
20260504215459 77 29 1.7 3.5 0.00 0.00 0.00 50 1007.5
20260504214955 77 1 4.3 5.2 0.00 0.00 0.00 47 1007.6
20260504214452 77 17 3.5 6.1 0.00 0.00 0.00 49 1007.6
20260504213948 76 328 2.6 4.3 0.00 0.00 0.00 49 1007.7
20260504213444 77 5 2.6 4.3 0.00 0.00 0.00 48 1007.7
20260504212942 77 6 2.6 4.3 0.00 0.00 0.00 49 1007.6
20260504212438 77 322 0.9 3.5 0.00 0.00 0.00 52 1007.9
20260504211936 76 357 2.6 3.5 0.00 0.00 0.00 52 1007.9
20260504211432 77 14 1.7 2.6 0.00 0.00 0.00 51 1007.9
20260504210929 78 302 2.6 3.5 0.00 0.00 0.00 53 1008.0
20260504210426 77 9 1.7 3.5 0.00 0.00 0.00 52 1008.0
20260504205923 77 338 1.7 4.3 0.00 0.00 0.00 50 1008.0
20260504205421 77 341 1.7 3.5 0.00 0.00 0.00 51 1008.1
20260504204919 77 136 0.0 3.5 0.00 0.00 0.00 50 1008.2
20260504204417 77 359 0.9 3.5 0.00 0.00 0.00 53 1008.2
20260504203916 77 284 1.7 3.5 0.00 0.00 0.00 48 1008.1
20260504203413 77 304 1.7 3.5 0.00 0.00 0.00 48 1008.3
20260504202908 77 309 0.9 2.6 0.00 0.00 0.00 48 1008.4
20260504202406 77 336 1.7 1.7 0.00 0.00 0.00 47 1008.4
20260504201902 76 300 1.7 2.6 0.00 0.00 0.00 53 1008.5
20260504201400 75 335 0.0 1.7 0.00 0.00 0.00 54 1008.8
20260504200857 75 312 0.9 1.7 0.00 0.00 0.00 54 1008.8
20260504200354 75 30 1.7 2.6 0.00 0.00 0.00 54 1008.8
20260504195850 75 348 1.7 3.5 0.00 0.00 0.00 52 1008.8
20260504195345 76 357 2.6 4.3 0.00 0.00 0.00 52 1008.8
20260504194843 77 254 0.9 2.6 0.00 0.00 0.00 53 1009.0
20260504194339 77 2 1.7 3.5 0.00 0.00 0.00 50 1009.0
20260504193835 78 349 2.6 3.5 0.00 0.00 0.00 48 1009.3
20260504193332 79 125 2.6 3.5 0.00 0.00 0.00 49 1009.3
20260504192831 79 263 2.6 2.6 0.00 0.00 0.00 55 1009.3
20260504192328 77 44 2.6 3.5 0.00 0.00 0.00 52 1009.2
20260504191827 76 83 2.6 2.6 0.00 0.00 0.00 55 1009.3
20260504191324 77 338 1.7 3.5 0.00 0.00 0.00 51 1009.4
20260504190819 77 5 1.7 5.2 0.00 0.00 0.00 54 1009.5
20260504190315 76 354 1.7 3.5 0.00 0.00 0.00 54 1009.4
20260504185812 75 242 1.7 2.6 0.00 0.00 0.00 56 1009.5
20260504185309 73 5 0.9 2.6 0.00 0.00 0.00 59 1009.7
20260504184805 72 9 1.7 5.2 0.00 0.00 0.00 56 1009.8
20260504184301 72 263 1.7 2.6 0.00 0.00 0.00 60 1009.7
20260504183757 72 351 3.5 5.2 0.00 0.00 0.00 57 1009.6
20260504183254 73 16 7.0 7.0 0.00 0.00 0.00 56 1009.8
20260504182752 74 313 0.9 1.7 0.00 0.00 0.00 57 1009.5
20260504182249 73 32 0.9 2.6 0.00 0.00 0.00 59 1009.7
20260504181747 72 340 1.7 3.5 0.00 0.00 0.00 59 1009.4
20260504181244 71 339 0.9 3.5 0.00 0.00 0.00 58 1009.6
20260504180743 72 5 3.5 3.5 0.00 0.00 0.00 58 1009.7
20260504180241 71 151 0.9 3.5 0.00 0.00 0.00 59 1009.3
20260504175738 71 356 2.6 3.5 0.00 0.00 0.00 60 1009.5
20260504175235 71 347 3.5 3.5 0.00 0.00 0.00 59 1009.5
20260504174733 71 312 2.6 3.5 0.00 0.00 0.00 62 1009.5
20260504174231 69 331 1.7 5.2 0.00 0.00 0.00 63 1009.5
20260504173727 68 333 2.6 4.3 0.00 0.00 0.00 62 1009.6
20260504173224 69 193 0.0 3.5 0.00 0.00 0.00 63 1009.7
20260504172721 68 328 2.6 4.3 0.00 0.00 0.00 62 1009.5
20260504172217 68 11 1.7 7.0 0.00 0.00 0.00 62 1009.6
20260504171714 69 14 3.5 3.5 0.00 0.00 0.00 60 1009.5
20260504171211 67 335 0.9 2.6 0.00 0.00 0.00 63 1009.6
20260504170707 66 339 1.7 4.3 0.00 0.00 0.00 63 1009.4
20260504170205 66 311 1.7 7.0 0.00 0.00 0.00 64 1009.3
20260504160123 69 349 1.7 3.5 0.00 0.00 0.00 61 1010.2
20260504151050 66 337 1.7 2.6 0.00 0.00 0.00 62 1010.2
20260504150548 66 308 1.7 3.5 0.00 0.00 0.00 63 1010.1
20260504141014 62 334 2.6 5.2 0.00 0.00 0.00 66 1010.2
20260504140510 62 326 4.3 4.3 0.00 0.00 0.00 66 1010.1
20260504130435 56 308 1.7 5.2 0.00 0.00 0.00 72 1011.0
20260504110317 54 16 3.5 5.2 0.00 0.00 0.00 67 1011.0
20260504100234 53 343 2.6 3.5 0.00 0.00 0.00 68 1011.1
20260504081627 51 337 2.6 2.6 0.00 0.00 0.00 68 1011.6
20260504081123 51 330 1.7 2.6 0.00 0.00 0.00 67 1011.7
20260504080620 51 321 0.9 2.6 0.00 0.00 0.00 67 1011.7
20260504080116 51 306 3.5 3.5 0.00 0.00 0.00 66 1011.9